Effective Sunday, March 17, 2024, the National Weather Service National Data Buoy Center will discontinue its Dial-A-Buoy Interactive Voice Response system. For more information, see Service Change Notice 24-06 (PDF).

Station TCBM2 - 8573364 - Tolchester Beach, MD Image indicating link to RSS feed of recent meteorological observations for station TCBM2


Conditions at TCBM2 as of
(10:54 am EST)
1554 GMT on 03/01/2024:
     

Click on the graph icon in the table below to see a time series plot of the last five days of that observation.

5-day plot - Wind Direction Wind Direction (WDIR):ESE ( 110 deg true )
5-day plot - Wind Speed Wind Speed (WSPD): 6.0 kts
5-day plot - Wind Gust Wind Gust (GST): 8.9 kts
5-day plot - Atmospheric Pressure Atmospheric Pressure (PRES):30.63 in
5-day plot - Air Temperature Air Temperature (ATMP): 43.3 °F
5-day plot - Wind Chill Wind Chill (CHILL): 39.2 °F
5-day plot - Wind Speed at 10 Meters Wind Speed at 10 meters (WSPD10M): 5.8 kts
5-day plot - Wind Speed at 20 Meters Wind Speed at 20 meters (WSPD20M): 7.8 kts
5-day plot -  Wind Speed, Wind Gust and Atmospheric Pressure Combined plot of Wind Speed, Gust, and Air Pressure
NOS Water Level Observation Network Water Level
Previous observations
TIME
(EST)
5-day plot - Wind Direction
WDIR
 
5-day plot - Wind Speed
WSPD
kts
5-day plot - Wind Gust
GST
kts
5-day plot - Wave Height
WVHT
ft
5-day plot - Dominant Wave Period
DPD
sec
5-day plot - Average Wave Period
APD
sec
5-day plot - Mean Wave Direction
MWD
 
5-day plot - Atmospheric Pressure
PRES
in
5-day plot - Pressure Tendency
PTDY
in
5-day plot - Air Temperature
ATMP
°F
5-day plot - Water Temperature
WTMP
°F
5-day plot - Dew Point
DEWP
°F
5-day plot - Salinity
SAL
psu
5-day plot - Visibility
VIS
nmi
5-day plot - Tide (above MLLW)
TIDE
ft
2024-03-01 10:48 amSSE 4.1 9.9----30.63- 43.9-----
2024-03-01 10:42 am SE 5.1 9.9----30.63- 43.3-----
2024-03-01 10:36 am SE 4.1 11.1----30.64- 43.3-----
2024-03-01 10:30 amESE 7.0 11.1----30.64- 42.6-----
2024-03-01 10:24 amESE 5.1 11.1----30.64- 43.0-----
2024-03-01 10:18 am E 6.0 11.1----30.64- 42.6-----
2024-03-01 10:12 am SE 5.1 9.9----30.65- 42.8-----
2024-03-01 10:06 amESE 7.0 9.9----30.65- 41.5-----
2024-03-01 10:00 amESE 6.0 11.1----30.65+0.04 42.1-----
2024-03-01 09:54 amESE 8.0 12.0----30.64- 41.2-----
2024-03-01 09:48 am SE 7.0 9.9----30.64- 41.5-----
2024-03-01 09:42 amESE 6.0 12.0----30.64- 41.4-----
2024-03-01 09:36 amESE 7.0 9.9----30.64- 40.8-----
2024-03-01 09:30 am S 8.0 9.9----30.64- 41.2-----
2024-03-01 09:24 amSSE 6.0 9.9----30.65- 41.0-----
2024-03-01 09:18 am SE 2.9 6.0----30.65- 41.9-----
2024-03-01 09:12 am SE 5.1 8.9----30.64- 40.6-----
2024-03-01 09:06 amESE 7.0 9.9----30.63- 39.6-----
2024-03-01 09:00 amESE 7.0 9.9----30.63-------
2024-03-01 08:48 amESE 4.1 9.9----30.63- 39.6-----
2024-03-01 08:42 am SE 5.1 8.0----30.63- 38.8-----
2024-03-01 08:36 amESE 5.1 9.9----30.63- 38.5-----
2024-03-01 08:30 am SE 4.1 7.0----30.63- 38.3-----
2024-03-01 08:18 amESE 5.1 6.0----30.63- 37.8-----
2024-03-01 08:12 amESE 5.1 7.0----30.63- 37.2-----
2024-03-01 08:06 amESE 4.1 5.1----30.63- 37.0-----
2024-03-01 08:00 amESE 2.9 6.0----30.63+0.06 37.2-----
2024-03-01 07:54 amESE 2.9 5.1----30.63- 36.9-----
2024-03-01 07:48 am E 2.9 4.1----30.63- 36.1-----
2024-03-01 07:42 am E 1.9 4.1----30.63- 35.4-----
2024-03-01 07:36 am E 2.9 4.1----30.63- 34.0-----
2024-03-01 07:30 amESE 1.9 4.1----30.63- 33.1-----
2024-03-01 07:24 amESE 2.9 4.1----30.62- 32.5-----
2024-03-01 07:18 amESE 2.9 2.9----30.62- 32.5-----
2024-03-01 07:12 am E 2.9 4.1----30.61- 32.7-----
2024-03-01 07:06 amESE 2.9 4.1----30.61-------
2024-03-01 07:00 amESE 4.1 5.1----30.61+0.07 32.0-----
2024-03-01 06:54 am E 2.9 4.1----30.60- 31.8-----
2024-03-01 06:42 am E 4.1 4.1----30.60-------
2024-03-01 06:36 amESE 4.1 4.1----30.60- 30.7-----
2024-03-01 06:30 amESE 4.1 5.1----30.60- 30.9-----
2024-03-01 06:24 am E 2.9 4.1----30.60- 30.9-----
2024-03-01 06:18 amESE 2.9 4.1----30.60- 30.4-----
2024-03-01 06:12 am E 2.9 4.1----30.59- 31.1-----
2024-03-01 06:06 amESE 2.9 4.1----30.59- 30.7-----
2024-03-01 06:00 am E 2.9 4.1------------
2024-03-01 05:48 am E 2.9 4.1----30.59- 31.5-----
2024-03-01 05:42 am E 2.9 4.1----30.59- 31.3-----
2024-03-01 05:36 am E 2.9 4.1----30.58- 30.9-----
2024-03-01 05:30 amESE 2.9 4.1----30.58- 30.4-----
2024-03-01 05:24 amESE 4.1 4.1----30.58- 31.1-----
2024-03-01 05:18 amESE 2.9 4.1----30.58- 30.2-----
2024-03-01 05:12 am E 2.9 2.9----30.58- 30.4-----
2024-03-01 05:06 am E 2.9 4.1----30.57- 30.6-----
2024-03-01 05:00 amESE 2.9 4.1----30.57+0.06 30.4-----
2024-03-01 04:54 am E 1.9 2.9----30.57- 30.7-----
2024-03-01 04:42 am E 1.9 2.9----30.56- 30.9-----
2024-03-01 04:36 am E 2.9 4.1----30.56- 30.7-----
2024-03-01 04:30 amESE 1.9 2.9----30.55- 30.4-----
2024-03-01 04:24 am E 2.9 2.9----30.55- 30.6-----
2024-03-01 04:18 am E 2.9 2.9----30.55- 30.7-----
2024-03-01 04:12 amESE 1.9 2.9----30.55- 30.6-----
2024-03-01 04:06 amESE 2.9 2.9----30.54- 30.4-----
2024-03-01 04:00 am E 2.9 2.9----30.54+0.03 31.1-----
2024-03-01 03:54 amESE 1.9 2.9----30.53- 30.7-----
2024-03-01 03:42 amESE 2.9 2.9----30.53- 31.3-----
2024-03-01 03:36 am E 2.9 2.9----30.53- 31.8-----
2024-03-01 03:30 am E 2.9 2.9----30.53- 31.3-----
2024-03-01 03:24 amESE 2.9 2.9----30.53- 31.3-----
2024-03-01 03:12 amESE 1.9 2.9----30.53- 31.5-----
2024-03-01 03:00 amESE 2.9 2.9----30.52+0.03 31.8-----
2024-03-01 02:54 amESE 1.9 2.9----30.52- 32.7-----
2024-03-01 02:42 amENE 1.0 1.9----30.52- 34.5-----
2024-03-01 02:30 am NE 2.9 5.1----30.51- 36.5-----
2024-03-01 02:24 amNNE 1.9 4.1----30.51- 36.3-----
2024-03-01 02:12 amENE 1.9 2.9----30.52- 35.8-----
2024-03-01 02:00 am E 1.9 2.9----30.52+0.01 36.1-----
2024-03-01 01:54 am NE 1.9 4.1----30.52- 38.3-----
2024-03-01 01:48 am N 5.1 8.0----30.51- 39.6-----
2024-03-01 01:42 am N 8.0 8.9----30.51- 39.9-----
2024-03-01 01:36 am N 7.0 8.9----30.51- 39.6-----
2024-03-01 01:30 am N 8.0 8.9----30.51- 40.1-----
2024-03-01 01:24 am N 7.0 8.0----30.51- 40.1-----
2024-03-01 01:18 am N 6.0 8.0----30.51- 40.1-----
2024-03-01 01:12 am N 7.0 8.0----30.51- 40.1-----
2024-03-01 01:06 am N 7.0 8.0----30.51- 40.1-----
2024-03-01 01:00 am N 6.0 8.0----30.51+0.02 40.1-----
2024-03-01 12:54 am N 7.0 8.0----30.50- 40.1-----
2024-03-01 12:48 am N 7.0 11.1----30.50-------
2024-03-01 12:42 am N 9.9 11.1----30.50-------
2024-03-01 12:36 am N 8.9 9.9----30.50- 40.3-----
2024-03-01 12:30 am N 7.0 9.9----30.50- 40.3-----
2024-03-01 12:18 am N 8.9 9.9----30.50- 40.3-----
2024-03-01 12:12 am N 8.0 11.1----30.50- 40.5-----
2024-03-01 12:06 amNNW 9.9 12.0----30.50- 40.5-----
2024-03-01 12:00 amNNW 8.9 9.9----30.50+0.02 40.3-----
2024-02-29 11:48 pm N 8.9 11.1----30.50- 40.3-----
2024-02-29 11:42 pmNNW 8.0 9.9----30.50- 40.5-----
2024-02-29 11:36 pmNNW 7.0 8.9----30.50- 40.5-----
2024-02-29 11:30 pmNNW 8.9 12.0----30.50- 40.5-----
2024-02-29 11:24 pmNNW 11.1 13.0----30.50- 40.5-----
2024-02-29 11:18 pmNNW 9.9 12.0----30.50- 40.5-----
2024-02-29 11:12 pmNNW 8.9 11.1----30.50- 40.6-----
2024-02-29 11:06 pmNNW 8.0 9.9----30.50- 40.8-----
2024-02-29 11:00 pmNNW 9.9 13.0----30.50+0.07 41.0-----
2024-02-29 10:54 pm N 12.0 13.0----30.50- 41.0-----
2024-02-29 10:48 pmNNW 12.0 13.0----30.50- 41.0-----
2024-02-29 10:42 pmNNW 9.9 12.0----30.50- 41.0-----
2024-02-29 10:36 pmNNW 9.9 13.0----30.50- 41.0-----
2024-02-29 10:30 pmNNW 9.9 13.0----30.50- 41.2-----
2024-02-29 10:24 pmNNW 11.1 14.0----30.50- 41.5-----
2024-02-29 10:18 pmNNW 12.0 13.0----30.49- 41.7-----
2024-02-29 10:12 pmNNW 9.9 11.1----30.49- 41.7-----
2024-02-29 10:06 pmNNW 9.9 12.0----30.49- 41.7-----
2024-02-29 10:00 pmNNW 9.9 12.0----30.49+0.06 41.9-----
2024-02-29 09:54 pmNNW 8.9 11.1----30.49- 41.9-----
2024-02-29 09:48 pmNNW 8.9 11.1----30.49- 41.9-----
2024-02-29 09:42 pmNNW 8.9 11.1----30.49- 42.1-----
2024-02-29 09:36 pmNNW 9.9 12.0----30.49- 42.3-----
2024-02-29 09:30 pmNNW 9.9 12.0----30.48- 42.3-----
2024-02-29 09:24 pm NW 11.1 13.0----30.48- 42.4-----
2024-02-29 09:18 pmNNW 12.0 14.0----30.47- 42.6-----
2024-02-29 09:12 pmNNW 8.9 11.1----30.47- 42.8-----
2024-02-29 09:06 pmNNW 8.9 11.1----30.47- 42.8-----
2024-02-29 09:00 pm NW 8.9 11.1----30.47+0.08 42.8-----
2024-02-29 08:54 pmNNW 9.9 12.0----30.47- 43.0-----
2024-02-29 08:48 pmNNW 11.1 12.0----30.46- 43.0-----
2024-02-29 08:42 pm NW 11.1 13.0----30.46- 43.2-----
2024-02-29 08:36 pm NW 9.9 13.0----30.45- 43.2-----
2024-02-29 08:30 pm NW 11.1 12.0----30.45- 43.3-----
2024-02-29 08:18 pm NW 9.9 14.0----30.45- 43.5-----
2024-02-29 08:12 pm NW 11.1 13.0----30.44- 43.5-----
2024-02-29 08:06 pmNNW 9.9 11.1----30.44- 43.5-----
2024-02-29 08:00 pmNNW 8.9 11.1----30.43+0.06 43.7-----
2024-02-29 07:54 pmNNW 8.9 12.0----30.43- 43.7-----
2024-02-29 07:48 pmNNW 9.9 12.0----30.43- 43.9-----
2024-02-29 07:42 pmNNW 11.1 12.0----30.43- 43.9-----
2024-02-29 07:36 pm NW 11.1 12.0----30.43- 44.1-----
2024-02-29 07:30 pm NW 9.9 11.1----30.42- 44.1-----
2024-02-29 07:24 pm NW 8.9 11.1----30.42- 44.1-----
2024-02-29 07:18 pm NW 8.9 9.9----30.43- 44.2-----
2024-02-29 07:12 pm NW 8.9 12.0----30.43- 44.2-----
2024-02-29 07:06 pm NW 8.9 11.1----30.43- 44.4-----
2024-02-29 07:00 pm NW 8.9 9.9----30.42+0.06 44.4-----
2024-02-29 06:54 pm NW 8.9 12.0----30.42- 44.4-----
2024-02-29 06:48 pmWNW 11.1 13.0----30.42- 44.6-----
2024-02-29 06:42 pmWNW 12.0 15.0----30.41- 44.6-----
2024-02-29 06:36 pmWNW 13.0 15.9----30.41- 44.8-----
2024-02-29 05:42 pmWNW 14.0 15.9----30.38- 44.8-----
2024-02-29 05:36 pm W 12.0 15.0----30.38- 44.8-----
2024-02-29 05:30 pmWNW 11.1 15.9----30.38- 44.8-----
2024-02-29 05:24 pm W 13.0 15.9----30.38- 45.0-----
2024-02-29 05:18 pmWNW 14.0 18.1----30.38- 45.0-----
2024-02-29 05:12 pmWNW 14.0 17.1----30.38- 45.0-----
2024-02-29 05:06 pm W 14.0 18.1----30.38- 44.8-----
2024-02-29 05:00 pm W 15.0 18.1----30.37+0.01 44.8-----
2024-02-29 04:48 pm W 13.0 15.0----30.37- 44.6-----
2024-02-29 04:42 pmWNW 15.0 17.1----30.37- 44.4-----
2024-02-29 04:36 pmWNW 14.0 15.9----30.37- 44.4-----
2024-02-29 04:30 pm W 9.9 15.0----30.37- 44.2-----
2024-02-29 04:24 pm W 13.0 17.1----30.37- 44.2-----
2024-02-29 04:18 pm W 13.0 15.0----30.37- 44.1-----
2024-02-29 04:12 pm W 12.0 15.9----30.37- 44.1-----
2024-02-29 04:06 pm W 12.0 15.0----30.37- 43.9-----
2024-02-29 04:00 pmWNW 12.0 13.0----30.37-0.03 43.9-----
2024-02-29 03:54 pm W 11.1 14.0----30.37- 43.7-----
2024-02-29 03:48 pm W 9.9 14.0----30.37- 43.5-----
2024-02-29 03:42 pm W 13.0 15.9----30.37- 43.3-----
2024-02-29 03:36 pm W 11.1 14.0----30.37- 43.2-----
2024-02-29 03:30 pmWNW 11.1 13.0----30.37- 43.2-----
2024-02-29 03:24 pm W 8.9 11.1----30.37- 42.8-----
2024-02-29 03:18 pm W 8.9 12.0----30.36- 42.6-----
2024-02-29 03:12 pm W 9.9 14.0----30.36- 42.4-----
2024-02-29 03:06 pm W 13.0 15.9----30.36- 42.3-----
2024-02-29 03:00 pm W 11.1 14.0----30.36-0.04 42.3-----
2024-02-29 02:54 pm W 9.9 15.0----30.36- 41.7-----
2024-02-29 02:48 pm W 13.0 15.0----30.36- 41.7-----
2024-02-29 02:42 pm W 9.9 13.0----30.36- 41.5-----
2024-02-29 02:36 pm W 6.0 11.1----30.36- 41.2-----
2024-02-29 02:30 pmWNW 11.1 12.0----30.36- 41.2-----
2024-02-29 02:24 pm W 11.1 14.0----30.37- 40.8-----
2024-02-29 02:18 pm W 12.0 14.0----30.36- 40.8-----
2024-02-29 02:12 pm W 8.9 12.0----30.36- 40.6-----
2024-02-29 02:06 pm W 8.9 13.0----30.36- 40.3-----
2024-02-29 02:00 pmWSW 8.9 13.0----30.36-0.04 40.5-----
2024-02-29 01:54 pm W 9.9 12.0----30.36- 40.1-----
2024-02-29 01:48 pm W 9.9 13.0----30.37- 39.6-----
2024-02-29 01:42 pmWSW 9.9 12.0----30.37- 39.7-----
2024-02-29 01:36 pmWSW 11.1 13.0----30.37- 39.6-----
2024-02-29 01:30 pm W 11.1 13.0----30.38- 39.4-----
2024-02-29 01:24 pmWSW 8.9 13.0----30.38- 39.6-----
2024-02-29 01:18 pm W 11.1 12.0----30.39- 39.0-----
2024-02-29 01:12 pm W 12.0 15.0----30.39- 39.0-----
2024-02-29 01:06 pm W 9.9 12.0----30.39- 38.8-----
2024-02-29 01:00 pm W 12.0 14.0----30.39-0.01 38.7-----
2024-02-29 12:54 pm W 9.9 14.0----30.39- 38.8-----
2024-02-29 12:48 pmWNW 12.0 15.0----30.40- 38.7-----
2024-02-29 12:42 pm W 12.0 14.0----30.39- 38.5-----
2024-02-29 12:36 pmWNW 13.0 17.1----30.40- 38.1-----
2024-02-29 12:30 pm W 11.1 14.0----30.40- 37.8-----
2024-02-29 12:24 pmWNW 14.0 18.1----30.40- 38.5-----
2024-02-29 12:18 pm NW 12.0 15.0----30.40- 37.9-----
2024-02-29 12:12 pm NW 14.0 17.1----30.40- 37.9-----
2024-02-29 12:06 pmNNW 13.0 19.0----30.40- 37.6-----
2024-02-29 12:00 pm NW 11.1 13.0----30.40+0.00 37.4-----
2024-02-29 11:54 am NW 8.9 15.9----30.40- 37.0-----
2024-02-29 11:48 am NW 13.0 15.0----30.40- 36.9-----
2024-02-29 11:42 am NW 13.0 15.0----30.40- 36.9-----
2024-02-29 11:36 am NW 11.1 13.0----30.40- 36.3-----
2024-02-29 11:30 amNNW 9.9 15.0----30.40- 36.1-----
2024-02-29 11:24 am NW 8.9 12.0----30.41- 36.3-----
2024-02-29 11:18 am NW 8.9 13.0----30.41- 36.1-----
2024-02-29 11:12 am NW 12.0 14.0----30.41- 35.8-----
2024-02-29 11:06 am NW 11.1 17.1----30.41- 35.8-----
2024-02-29 11:00 amWNW 14.0 15.0----30.40+0.03 35.8-----
2024-02-29 10:54 am NW 9.9 14.0----30.40- 35.4-----